sat.trackr.live / text

‹ back to catalog

JILIN-1 GAOFEN 2F

NORAD 49338 · 2021-097A

PAYLOAD ACTIVE UNKNOWN

§ Identity

Operator
Country
PRC
Launch date
2021-10-27
Launch site
JSC
Launch vehicle
Mass (kg)
RCS (m²)

External: N2YO · Heavens-Above · Gunter

§ Orbital elements

Epoch: 2026-09-20T04:25:00.674112Z

Period
95.47 min
Inclination
97.6808°
Eccentricity
0.0017078
Mean motion
15.08323669 rev/d
Perigee alt
529.5 km
Apogee alt
553.1 km
Semi-major
6,919.5 km
B*
1.5206e-4
RAAN
29.2483°
Arg perigee
262.7814°
Mean anomaly
97.1473°
Rev number
27,063

§ Raw data

JILIN-1 GAOFEN 2F1 49338U 21097A   26263.18403558  .00002302  00000+0  15206-3 0  99922 49338  97.6808  29.2483 0017078 262.7814  97.1473 15.08323669270630

JSON: /api/v1/satellites/49338 · /tle

For live sub-satellite position, see the globe view (requires WebGL).

§ Visibility from observer

Set your observer location to see the next 7 days of passes ≥ 10°. The values pass through the URL so the page stays shareable.

No JS? Fill the form by hand. The geolocation button needs JavaScript.

§ Radio — SatNOGS DB

ModeDescriptionDownlinkUplink
BPSK S-band telemetry 2.228 GHz

1 transmitter · refreshed weekly from db.satnogs.org